Tracking 23764 objects as of 18-Oct-2021
HD Live streaming from Space Station
objects crossing your sky now

COSMOS 534

Track COSMOS 534 now!
10-day predictions
COSMOS 534 is classified as:


NORAD ID: 6269
Int'l Code: 1972-087G
Perigee: 1,355.1 km
Apogee: 1,475.1 km
Inclination: 74.0 °
Period: 114.0 minutes
Semi major axis: 7786 km
RCS: 0.7724 m2 (medium)
Launch date: November 1, 1972
Source: Commonwealth of Independent States (former USSR) (CIS)
Launch site: PLESETSK MISSILE AND SPACE COMPLEX (PKMTR)
aabbcc
Your satellite tracking list
Your tracking list is empty




NASA's NSSDC Master Catalog

Two Line Element Set (TLE):
1 06269U 72087G   21289.51394726 -.00000030  00000-0 -73640-4 0  9995
2 06269  74.0363 201.7715 0077085 243.7714 290.3706 12.63633201258296
Source of the keplerian elements: AFSPC